Location: Augirein
(42.9320°N, 0.9181°E)
Time: 19:41:58
(UTC+00:00)

USA 267 - Pass Details

Date: 20 June 2021
Orbit: 1102 x 1106 km, 123.0° (Epoch: 01 August)

Event Time Altitude Azimuth Distance (km) Brightness Sun altitude
Exits shadow 01:19:18 36° 212° (SSW) 1,677 3.7 -21.0°
Maximum altitude 01:20:19 38° 231° (SW) 1,625 3.7 -21.0°
Drops below altitude 10° 01:26:19 10° 298° (WNW) 2,964 5.6 -20.6°
Sets 01:29:02 0° 306° (NW) 3,925 6.3 -20.4°
